Regional Weather Roundup
Issued by NWS

Home | Current Version | Previous Version | Graphics & Text | Print | Product List | Glossary On
Versions: 1 2 3 4 5 6 7 8 9 10 11 12 13 14 15 16 17 18 19 20 21 22 23 24 25 26 27 28 29 30 31 32 33 34 35 36 37 38 39 40 41 42 43 44 45 46 47 48 49 50
000
ASUS43 KLOT 300308
RWRIL

ILLINOIS REGIONAL WEATHER ROUNDUP
NATIONAL WEATHER SERVICE CHICAGO/ROMEOVILLE IL
1000 PM CDT WED MAR 29 2017

NOTE: "FAIR" INDICATES FEW OR NO CLOUDS BELOW 12,000 FEET WITH NO
SIGNIFICANT WEATHER AND/OR OBSTRUCTIONS TO VISIBILITY.

* THESE STATIONS ARE NOT UNDER NWS QUALITY CONTROL. THEY ALSO MAY NOT
  REPORT WEATHER SUCH AS PRECIPITATION OR FOG.

ILZ001-002-007-009-015-016-024-300400-
NORTHWEST ILLINOIS

CITY           SKY/WX    TMP DP  RH WIND       PRES   REMARKS
MOLINE         CLOUDY    44  39  82 E18       29.94F
STERLING*      CLOUDY    42  39  89 E24       29.98F
SAVANNA*       LGT RAIN  41  39  90 NE21G30   30.01F
$$

ILZ003-004-008-010-011-017-018-300400-
NORTH CENTRAL ILLINOIS

CITY           SKY/WX    TMP DP  RH WIND       PRES   REMARKS
ROCKFORD       LGT RAIN  42  37  82 E17G26    30.07F
FREEPORT*      CLOUDY    40  37  89 E20       30.07S
ROCHELLE*      CLOUDY    41  38  91 NE22      30.03F
DE KALB*       LGT RAIN  41  38  91 NE15G25   30.04F
PERU*          RAIN      43  40  88 E17G23    29.98F
$$

ILZ005-006-012>014-019>023-300400-
NORTHEAST ILLINOIS

CITY           SKY/WX    TMP DP  RH WIND       PRES   REMARKS
CHICAGO-OHARE  LGT RAIN  44  38  79 NE13      30.08F
CHICAGO-MIDWAY LGT RAIN  47  38  71 E17G25    30.07F
AURORA         CLOUDY    44  39  82 NE14      30.03S
LANSING*       RAIN      47  41  78 E12       30.07R
JOLIET*        LGT RAIN  47  43  85 NE14      30.02F
WAUKEGAN       CLOUDY    41  38  89 NE12G21   30.09F
DUPAGE AIRPORT LGT RAIN  43  40  89 NE14      30.05S
KANKAKEE*      LGT RAIN  50  38  64 E20G26    30.01S
WHEELING       CLOUDY    42  39  89 NE12      30.10F
MORRIS*        DRIZZLE   46  42  86 NE7       30.01S
ROMEOVILLE*    LGT RAIN  45  42  90 E17       30.02F
NORTHERLY ISL    N/A     42  38  85 NE10        N/A
$$

LMZ740>746-300400-
SOUTHERN LAKE MICHIGAN

STATION/POSITION SKY/WX   TEMP    WIND        PRES    VSBY  WAVE
                          AIR SEA DIR/SP/G                  HT/PER
                          (F)     (DEG/KT/KT) (MB)    (MI)  (FT/S)
HARRISON CRIB              42      50/ 18/ 19   N/A
BURNHAM HARBOR             41      30/  9/ 13   N/A
CALUMET HARBOR             42      30/ 13/ 15 1017.5F
BURNS HARBOR               47      70/ 17/ 19 1018.3F
MICHIGAN CITY              47      60/ 12/ 16   N/A
$$

ILZ025>027-034>036-040-047-049-050-058-095>099-300400-
WEST-CENTRAL ILLINOIS

CITY           SKY/WX    TMP DP  RH WIND       PRES   REMARKS
QUINCY         CLOUDY    53  49  86 E17G23    29.78F
GALESBURG*     LGT RAIN  46  43  91 NE17G24   29.88F
MACOMB*        CLOUDY    48  47  93 E16G23    29.88S
JACKSONVILLE*  CLOUDY    53  49  86 E14       29.82F
PITTSFIELD*    CLOUDY    54  51  92 E9        29.81S
$$

ILZ028>032-037-038-041>044-048-051>054-059>061-300400-
CENTRAL ILLINOIS

CITY           SKY/WX    TMP DP  RH WIND       PRES   REMARKS
PONTIAC        CLOUDY    50  45  82 E20G28    29.96S
BLOOMINGTON    CLOUDY    50  46  86 E15       29.91F
DECATUR        CLOUDY    53  47  79 E13       29.88F
PEORIA         CLOUDY    49  46  90 E17       29.90F
LACON*         LGT RAIN  46  44  92 NE14G22   29.94F
LINCOLN*       CLOUDY    54  48  81 E12       29.87F
SPRINGFIELD    PTCLDY    55  48  77 E13       29.84F
TAYLORVILLE    CLOUDY    54  48  82 E14       29.83F
$$

ILZ033-039-045-046-055>057-062-063-300400-
EAST-CENTRAL ILLINOIS

CITY           SKY/WX    TMP DP  RH WIND       PRES   REMARKS
CHAMPAIGN      CLOUDY    55  45  68 E16       29.91F
RANTOUL*       CLOUDY    55  48  77 E13       29.93F
MATTOON        MOCLDY    56  48  74 SE12      29.87F
PARIS*         CLOUDY    56  47  70 E16G23    29.92F
$$

ILZ079-100>102-300400-
SOUTHWEST ILLINOIS

CITY           SKY/WX    TMP DP  RH WIND       PRES   REMARKS
ALTON          PTCLDY    57  50  77 E12       29.79F
BELLEVILLE     CLOUDY    60  55  82 NE9       29.78F
CAHOKIA*       CLOUDY    62  53  72 E9        29.77F
SPARTA*        CLOUDY    63  55  73 E13       29.80S
$$

ILZ064>066-069>071-074>076-080>082-084>086-088>090-092>094-300400-
SOUTH-CENTRAL ILLINOIS

CITY           SKY/WX    TMP DP  RH WIND       PRES   REMARKS
CARBONDALE     PTCLDY    64  56  75 E10       29.80F
CAIRO*         CLOUDY    66  60  80 SE6       29.80S
EFFINGHAM*     CLOUDY    58  51  77 E12G17    29.88F
MARION         MOCLDY    66  55  68 E9        29.82F
MT. VERNON     PTCLDY    63  53  70 E15G21    29.83S
CENTRALIA*     CLOUDY    62  54  74 E13G18    29.81F
SALEM*         CLOUDY    62  51  68 E9        29.84S
METROPOLIS*    CLOUDY    69  58  67 SE6       29.83F
$$

ILZ067-068-072-073-078-083-087-091-300400-
SOUTHEAST ILLINOIS

CITY           SKY/WX    TMP DP  RH WIND       PRES   REMARKS
LAWRENCEVILLE  CLOUDY    59  50  72 E13       29.91F
FLORA*         MOCLDY    62  52  70 E12       29.86F
FAIRFIELD*     MOCLDY    62  52  70 E10       29.84F
HARRISBURG*    CLOUDY    64  56  76 E16       29.84F
ROBINSON*      CLOUDY    57  49  72 E12       29.91F
CARMI*         CLOUDY    62  54  73 E12G18    29.86F
$$

ABBREVIATIONS USED IN REMARKS
   TC - TEMPERATURE IN CELSIUS
  WCI - WIND CHILL INDEX
   HX - HEAT INDEX
  VSB - VISIBILITY
$$





USA.gov is the U.S. government's official web portal to all federal, state and local government web resources and services.